Temperature
11 11 12 12 12 13 13 13 13 13 14 14 13 13 15 15 16 15 14 14 14 15 15 16 17 18 18 18 19 19 19 19 18 18 17 16 15 15 14 14 14 14 14 13
11 11 12 12 12 13 13 13 13 13 14 14 13 13 14 13 15 15 14 14 14 14 15 16 17 17 18 18 19 19 19 18 18 17 17 16 14 14 13 13 13 13 13 13
12 13 13 13 12 12 13 13 13 13 12 14 13 13 13 14 14 13 14 14 14 15 15 15 16 16 17 17 17 17 17 17 17 16 16 15 14 13 13 13 12 12 12 12
11 12 13 12 12 12 12 13 13 13 13 12 13 12 13 14 14 12 13 13 14 14 14 14 14 15 15 15 15 15 15 15 15 14 14 14 13 13 12 12 11 11 11 11
11 12 12 12 12 12 13 13 13 13 13 12 12 12 12 13 13 12 11 12 13 14 14 13 14 14 14 14 14 14 14 14 13 13 13 13 12 12 12 12 12 12 12 11
11 12 12 12 13 13 13 13 13 11 12 12 12 12 12 12 12 12 11 12 13 13 13 13 13 13 13 13 13 13 13 13 12 12 12 12 12 12 12 12 12 12 11 11
11 11 12 13 12 12 13 12 12 12 11 11 12 11 12 13 13 12 11 12 13 13 12 12 12 12 12 12 12 12 12 12 12 12 12 11 11 11 11 11 11 11 11 10
10 10 11 12 12 11 12 12 11 12 11 11 12 10 12 13 12 13 14 14 13 12 12 12 12 12 12 12 12 12 12 11 11 11 11 10 10 10 10 10 9 9 9 9
11 11 12 12 12 13 11 11 12 11 12 11 11 11 12 13 11 10 12 12 12 12 12 12 12 12 12 12 12 11 11 11 11 11 10 10 10 10 9 9 9 8 8 7
11 11 12 12 12 12 12 11 10 12 12 12 12 12 13 14 13 10 9 10 11 12 12 12 12 12 11 11 11 11 10 10 10 10 9 9 9 9 9 8 8 7 7 6
11 10 11 12 12 12 11 11 11 10 11 11 12 13 13 12 12 10 10 11 12 12 12 12 11 11 11 10 10 10 10 9 9 9 9 8 8 8 7 7 6 6 6 5
10 10 10 12 12 11 12 11 10 11 10 9 10 12 13 10 10 10 11 11 12 13 12 12 11 10 10 10 9 9 9 9 8 8 8 7 7 6 6 5 5 5 5 5
11 10 11 11 11 11 12 11 11 10 10 8 10 13 12 10 11 12 13 13 14 13 12 11 10 10 9 9 9 8 8 8 7 7 7 6 5 5 5 5 4 4 4 4
11 11 11 11 11 10 11 11 10 10 10 9 10 12 13 12 12 12 13 13 13 12 11 10 9 9 8 8 8 8 7 7 6 6 5 4 4 4 4 4 4 4 3 3
12 11 11 11 11 10 11 11 10 11 11 11 11 11 13 13 12 12 12 12 11 11 10 9 9 8 8 8 7 7 6 5 5 5 4 4 3 3 3 3 3 3 2 2
11 11 11 11 11 12 12 11 10 11 10 11 12 12 12 12 12 12 12 12 11 10 10 9 8 8 7 7 6 5 5 4 4 3 3 3 3 3 2 2 2 2 2 1
10 11 11 10 11 13 12 11 10 10 10 10 11 11 11 11 11 12 12 12 12 11 10 9 8 7 6 6 5 4 4 4 3 3 3 2 2 2 2 1 1 1 1 0
10 10 9 9 11 12 12 11 10 10 10 11 11 10 10 10 11 11 12 12 12 11 10 8 7 6 5 5 4 3 3 3 3 2 2 2 2 1 1 1 0 -0 -1 -1
9 9 9 8 10 11 12 10 9 9 9 10 9 9 9 10 10 10 11 11 11 11 9 7 6 5 5 4 3 3 2 2 2 1 1 1 1 0 0 -0 -1 -2 -2 -2
7 8 8 8 10 10 12 11 11 10 8 9 9 8 9 9 8 8 10 10 10 9 7 6 5 5 4 3 2 2 2 1 1 1 1 0 -0 -1 -1 -2 -2 -3 -3 -4
8 8 8 9 10 10 11 10 11 10 10 8 9 9 9 8 8 9 8 8 7 6 5 5 4 4 3 2 2 1 1 0 0 0 -0 -0 -1 -2 -2 -3 -3 -4 -4 -4
7 7 7 7 9 9 10 9 9 9 9 9 9 9 9 9 8 8 8 7 6 5 4 4 3 3 2 2 1 0 -0 -0 -0 -0 -1 -1 -2 -2 -3 -3 -4 -4 -5 -5
6 7 7 8 8 8 9 9 10 10 9 9 9 8 8 8 8 7 7 6 5 4 4 3 2 2 1 0 -0 -1 -1 -1 -1 -1 -1 -2 -2 -3 -3 -4 -4 -5 -6 -7
6 6 6 7 7 7 8 9 9 9 9 8 8 8 7 7 7 6 6 6 5 3 3 2 1 1 -0 -1 -1 -1 -1 -1 -1 -2 -2 -3 -3 -3 -4 -5 -5 -6 -7 -8
7 6 6 7 7 7 8 8 9 8 8 8 7 7 7 6 6 6 5 5 4 3 2 1 0 -0 -0 -0 -1 -1 -2 -2 -2 -3 -3 -3 -4 -4 -5 -5 -7 -8 -9 -10
4 5 6 6 6 5 7 8 8 8 7 7 6 6 6 6 5 4 4 3 2 1 1 0 -0 -1 -1 -1 -1 -2 -2 -3 -3 -4 -4 -4 -5 -5 -6 -7 -7 -9 -10 -10
Wind_Speed
13 12 14 15 12 7 8 8 8 8 5 4 10 14 19 13 6 5 5 4 6 7 5 8 10 10 10 11 11 11 13 10 6 5 4 2 2 2 2 2 4 5 5 5
12 17 12 10 9 6 5 5 5 7 3 4 8 12 12 8 5 5 8 6 5 7 8 9 10 11 11 11 12 14 14 13 9 5 3 3 4 4 4 6 8 10 9 8
12 9 13 12 9 9 6 6 6 7 9 7 7 10 9 4 2 6 7 6 6 7 7 7 9 10 10 12 12 12 13 14 13 9 6 6 5 5 6 7 7 7 10 11
9 8 16 15 11 9 8 6 6 5 5 6 5 7 9 5 3 5 7 7 7 6 6 7 8 9 9 9 9 11 12 13 13 11 13 13 9 7 6 4 5 7 8 9
9 11 17 16 10 10 6 5 6 4 4 5 3 5 10 4 6 8 8 8 7 7 7 7 8 8 8 8 9 10 12 14 13 13 12 11 9 6 4 5 8 9 8 8
3 6 9 9 8 9 6 6 4 4 2 5 6 8 9 6 8 8 8 9 8 7 6 7 7 8 9 8 9 9 13 13 12 12 12 11 11 10 10 10 10 8 7 7
5 4 5 8 9 6 6 5 2 2 2 7 4 6 10 7 6 9 13 11 9 8 7 7 8 9 9 9 9 9 12 12 10 12 13 11 10 10 10 9 9 9 8 7
8 8 9 8 9 9 9 9 8 7 6 5 3 7 9 5 5 7 10 11 9 8 7 7 8 8 8 9 9 9 11 10 10 10 10 9 9 7 7 8 7 7 7 6
8 5 5 6 7 13 9 8 6 5 3 4 6 8 9 1 6 4 11 11 10 9 8 8 8 8 8 9 8 8 9 10 9 8 8 9 8 8 7 7 6 6 6 7
8 7 6 6 8 4 8 11 6 5 4 5 7 6 5 6 2 4 10 11 9 8 8 8 8 7 7 7 7 8 9 9 8 8 8 7 7 8 7 7 8 8 9 9
6 8 5 6 8 10 6 6 6 6 5 5 4 7 5 6 6 8 9 9 10 10 9 8 8 7 7 7 7 8 8 8 8 7 7 8 8 8 7 7 8 8 8 9
5 6 6 3 1 7 7 9 8 6 5 5 3 7 5 6 3 7 8 7 9 9 8 8 8 7 7 7 7 8 7 7 7 7 7 7 7 7 8 8 8 8 8 9
7 7 8 4 1 2 4 6 6 7 6 6 6 7 5 5 7 7 8 8 8 8 8 8 7 7 7 7 7 7 7 6 6 6 7 7 7 8 8 8 8 9 9 10
6 5 8 12 9 9 7 7 7 8 6 7 8 8 4 4 5 4 4 5 7 8 9 9 7 7 7 6 6 6 5 5 5 6 6 6 7 7 8 8 8 8 9 10
5 5 4 4 5 8 8 11 13 11 10 10 9 9 5 2 3 2 2 4 7 8 9 9 8 7 6 6 5 5 5 5 5 5 5 5 6 7 7 8 8 8 9 11
3 6 5 4 4 4 3 8 14 11 8 7 6 7 3 1 2 2 2 4 6 8 9 9 8 8 7 6 5 4 3 3 3 3 4 5 6 7 7 8 9 9 10 11
4 6 5 4 2 3 5 9 12 8 7 9 10 8 5 3 4 2 2 1 4 7 9 9 9 8 7 6 5 4 2 2 2 3 5 6 6 7 8 10 10 10 10 11
7 6 5 5 5 6 6 1 8 7 3 5 6 6 5 4 3 3 3 3 4 5 9 9 8 7 6 5 4 3 2 2 4 5 6 6 7 7 8 8 9 9 9 10
3 7 6 5 5 5 4 5 8 8 3 2 7 7 5 4 4 4 3 3 2 6 8 8 7 7 6 5 4 3 2 3 4 5 6 7 7 7 8 9 9 9 10 11
6 6 6 5 5 8 5 4 6 7 4 3 6 7 6 5 2 3 2 2 3 7 7 7 7 7 6 5 4 3 2 3 4 6 7 7 7 8 9 10 9 8 9 11
4 5 5 5 4 7 3 3 6 5 7 7 7 7 6 6 5 3 4 4 5 6 7 8 8 6 5 4 3 2 2 4 5 6 7 7 8 8 9 8 7 10 11 12
8 7 6 6 5 8 2 7 7 5 6 7 7 6 6 5 3 5 6 6 7 7 7 7 6 5 4 4 3 1 3 5 5 6 7 8 8 8 9 9 10 9 10 12
5 6 6 7 5 1 1 5 6 7 7 7 6 6 5 3 2 4 6 7 7 7 6 5 6 5 4 3 2 2 4 5 6 7 8 8 9 8 8 9 10 10 9 10
3 3 4 3 3 2 4 6 6 5 6 5 4 3 3 3 1 3 5 6 6 6 5 5 5 5 3 2 2 3 5 6 6 7 8 9 9 9 8 6 8 9 9 10
5 6 4 3 4 4 2 4 5 6 7 7 5 3 2 2 2 4 5 7 7 6 5 5 5 4 2 2 4 5 6 5 7 8 9 9 8 9 8 7 7 10 8 12
5 7 8 6 8 7 6 4 5 6 5 5 3 2 2 1 3 4 5 6 6 6 5 5 4 2 2 4 6 6 6 6 7 8 8 7 7 7 8 10 11 15 16 22
Wind_Direction
185 189 190 188 185 157 161 178 221 249 270 287 265 268 276 286 265 230 167 136 90 70 35 26 28 26 31 29 29 30 36 29 48 70 74 71 14 346 348 337 315 310 304 292
182 205 187 160 155 138 156 193 249 285 285 246 280 280 274 276 249 194 164 155 119 89 56 39 33 32 34 35 34 38 38 36 39 60 78 87 87 58 47 37 35 31 30 23
192 184 164 154 154 171 191 203 245 281 329 336 326 301 296 299 102 115 129 138 124 113 104 74 53 42 39 39 37 45 40 41 40 44 57 56 52 44 34 27 29 24 35 35
212 159 163 169 170 165 217 206 223 267 318 299 4 309 289 275 181 147 138 138 141 135 118 98 78 60 48 42 42 49 50 48 43 48 62 66 65 58 29 16 17 18 23 25
199 166 162 177 175 164 186 184 201 233 238 279 283 255 279 271 220 202 176 171 172 155 130 107 91 81 65 56 56 57 60 55 50 54 58 66 64 56 36 27 24 20 15 16
159 159 163 159 148 160 132 97 84 53 91 276 233 209 279 244 218 196 179 180 180 161 137 111 97 88 75 64 61 63 67 58 50 54 54 57 54 42 36 26 19 12 6 4
151 168 168 139 136 140 134 130 138 249 240 248 230 212 251 256 226 192 177 179 178 167 151 129 109 94 88 78 71 69 72 62 52 55 51 45 44 41 36 23 14 9 2 356
146 179 183 164 156 157 175 172 173 192 220 269 231 233 254 278 281 225 167 158 157 164 163 141 120 111 106 93 78 73 73 65 55 57 53 44 43 41 31 20 12 4 354 342
148 174 172 178 149 144 167 199 177 140 206 262 268 274 299 360 25 132 148 148 159 167 166 143 121 116 109 94 82 81 81 70 59 57 60 46 36 33 23 12 6 357 348 346
129 131 157 141 100 114 166 153 140 166 194 255 286 280 266 317 337 157 161 159 158 162 161 142 128 120 105 97 88 76 75 73 64 57 53 48 29 22 12 8 4 356 347 343
117 122 135 151 171 158 130 148 153 151 160 174 274 281 245 276 254 194 182 165 162 171 168 150 134 123 112 95 82 74 69 66 57 53 47 37 23 11 5 4 358 350 343 341
122 114 124 152 217 171 154 165 147 156 203 180 193 273 300 298 248 155 151 157 175 181 163 144 137 127 109 92 80 73 65 60 52 50 45 32 16 5 2 356 350 345 341 340
140 119 117 117 126 172 166 172 160 132 131 161 178 263 337 56 90 126 154 181 187 171 149 141 137 124 108 96 83 71 60 54 50 50 42 25 11 3 354 346 344 346 345 342
127 124 159 180 193 169 180 184 163 143 169 192 215 250 326 71 114 138 178 203 187 166 155 149 137 121 113 102 90 79 59 46 49 45 35 20 2 350 340 335 338 339 337 336
121 119 118 118 151 155 171 182 181 190 188 188 218 217 234 208 209 212 197 167 162 162 158 153 142 134 125 111 96 80 62 45 45 40 24 4 346 338 333 333 334 334 336 337
115 124 112 80 84 138 175 194 190 199 190 196 188 217 233 212 137 92 77 139 169 175 166 153 144 141 135 129 117 102 81 45 38 28 6 353 346 339 336 335 335 335 334 330
124 124 116 139 126 106 245 208 185 192 191 174 196 209 158 125 120 74 15 269 214 189 167 157 153 149 146 146 141 133 103 40 22 14 2 350 340 336 334 335 334 331 326 323
125 110 113 126 137 213 245 159 156 145 156 170 137 124 131 138 110 31 15 325 280 181 158 152 148 144 142 135 134 129 93 34 16 4 345 335 335 331 326 325 323 320 317 319
111 128 122 138 182 252 260 162 147 134 140 130 126 120 104 90 54 360 12 350 268 173 154 150 145 137 131 131 132 122 71 23 4 341 328 327 326 323 325 323 315 311 316 319
53 86 110 132 170 224 233 158 150 105 158 211 145 136 128 108 95 272 333 70 110 123 126 126 122 125 134 136 131 110 47 3 336 320 313 313 318 320 313 303 298 306 313 311
96 80 113 150 206 254 215 144 128 162 209 163 144 136 138 165 195 211 136 129 126 118 119 124 130 137 143 133 111 79 359 321 306 305 309 317 316 306 294 291 298 307 309 310
156 148 164 152 192 243 156 138 166 169 131 132 143 159 174 194 178 143 151 146 137 129 131 134 135 135 126 111 100 3 300 292 301 310 314 308 300 298 306 301 302 303 305 310
187 181 179 185 198 258 67 144 136 130 136 162 172 185 172 166 154 153 164 166 161 154 150 137 134 131 123 119 143 281 288 306 317 315 306 298 296 291 292 296 303 308 306 306
224 145 132 154 203 117 104 112 121 125 133 143 130 124 133 154 162 177 174 173 166 157 153 139 138 148 172 204 259 279 299 313 312 302 297 295 296 298 293 287 296 303 302 302
178 150 144 167 159 130 165 149 133 112 98 92 82 79 96 146 175 181 182 177 169 161 154 147 149 166 211 288 309 307 305 306 299 293 291 293 292 298 305 299 289 299 288 297
191 174 173 201 192 173 191 160 121 116 99 81 85 90 91 160 207 186 182 174 164 158 145 139 145 179 290 311 309 306 304 298 292 296 295 294 303 305 305 307 307 306 310 313
Height
1479 1483 1484 1488 1492 1498 1503 1506 1509 1505 1500 1501 1499 1495 1483 1476 1479 1478 1480 1482 1481 1480 1481 1481 1481 1480 1480 1479 1478 1476 1475 1475 1475 1476 1477 1478 1479 1480 1480 1480 1480 1479 1478 1477
1477 1477 1479 1484 1491 1496 1501 1505 1507 1504 1500 1499 1497 1491 1480 1475 1474 1474 1477 1481 1482 1481 1481 1482 1481 1481 1481 1480 1478 1478 1477 1477 1477 1477 1477 1478 1478 1479 1479 1479 1478 1477 1476 1475
1468 1471 1477 1484 1492 1498 1501 1505 1506 1506 1502 1497 1497 1491 1482 1474 1473 1474 1477 1479 1481 1482 1482 1482 1481 1481 1481 1480 1480 1480 1480 1479 1479 1478 1478 1478 1478 1479 1479 1478 1477 1476 1475 1473
1470 1470 1475 1483 1489 1495 1501 1500 1503 1505 1509 1510 1505 1508 1487 1476 1474 1474 1476 1479 1481 1483 1483 1482 1481 1481 1482 1482 1483 1483 1482 1481 1481 1480 1479 1479 1479 1479 1479 1479 1478 1476 1474 1472
1467 1468 1472 1479 1485 1490 1495 1496 1501 1504 1507 1511 1507 1508 1489 1477 1475 1474 1475 1477 1480 1483 1483 1483 1482 1482 1483 1484 1485 1485 1484 1483 1483 1482 1482 1481 1480 1480 1480 1479 1477 1475 1473 1470
1465 1466 1469 1474 1481 1487 1492 1498 1503 1507 1509 1515 1505 1507 1493 1478 1471 1469 1472 1475 1479 1482 1484 1484 1483 1483 1484 1485 1486 1486 1485 1484 1485 1484 1483 1483 1482 1481 1479 1477 1475 1473 1470 1467
1467 1468 1468 1470 1482 1488 1492 1503 1514 1514 1516 1512 1499 1502 1486 1466 1463 1463 1467 1472 1477 1481 1483 1483 1483 1484 1484 1485 1486 1486 1486 1485 1485 1485 1484 1483 1482 1480 1478 1475 1473 1470 1467 1464
1465 1471 1468 1468 1474 1484 1490 1497 1509 1515 1515 1507 1497 1499 1476 1462 1460 1460 1463 1469 1476 1480 1482 1483 1483 1483 1484 1484 1485 1486 1486 1485 1485 1485 1484 1483 1482 1480 1477 1475 1471 1468 1464 1461
1458 1466 1464 1465 1467 1476 1488 1493 1492 1501 1503 1506 1497 1486 1469 1459 1459 1459 1462 1468 1474 1478 1481 1482 1482 1483 1483 1484 1485 1485 1485 1485 1485 1484 1484 1483 1481 1478 1476 1473 1469 1466 1461 1457
1450 1464 1464 1465 1467 1474 1477 1482 1497 1499 1503 1504 1495 1487 1475 1459 1460 1463 1465 1467 1472 1476 1479 1480 1481 1482 1483 1484 1485 1485 1485 1485 1484 1484 1483 1481 1479 1477 1474 1470 1466 1462 1458 1453
1444 1459 1466 1465 1467 1472 1479 1482 1484 1492 1496 1503 1499 1486 1465 1462 1460 1462 1465 1468 1471 1474 1477 1478 1479 1480 1482 1483 1484 1484 1484 1484 1484 1483 1481 1480 1477 1474 1470 1466 1462 1458 1454 1449
1442 1454 1466 1465 1464 1463 1467 1473 1480 1490 1496 1499 1500 1487 1462 1461 1458 1460 1466 1469 1471 1474 1476 1476 1478 1479 1481 1482 1482 1483 1483 1483 1482 1481 1479 1477 1474 1471 1467 1463 1458 1454 1450 1446
1439 1451 1465 1471 1471 1467 1466 1469 1471 1478 1488 1499 1498 1481 1463 1460 1459 1461 1465 1468 1470 1472 1473 1474 1476 1478 1479 1480 1481 1481 1481 1481 1480 1478 1476 1473 1470 1467 1463 1459 1455 1451 1447 1443
1434 1444 1452 1461 1460 1463 1466 1467 1470 1475 1485 1491 1487 1475 1463 1462 1462 1463 1465 1466 1467 1469 1470 1472 1474 1476 1478 1479 1479 1480 1480 1479 1478 1476 1473 1470 1467 1463 1460 1456 1452 1448 1443 1439
1432 1442 1445 1448 1449 1452 1454 1459 1465 1467 1469 1476 1472 1471 1462 1461 1461 1462 1463 1463 1464 1466 1468 1470 1472 1474 1476 1477 1478 1478 1478 1477 1475 1473 1469 1466 1463 1460 1456 1452 1448 1444 1440 1436
1432 1439 1443 1450 1449 1449 1451 1454 1459 1460 1462 1464 1463 1463 1459 1459 1460 1461 1461 1461 1462 1464 1466 1468 1470 1472 1474 1475 1476 1476 1475 1474 1471 1469 1466 1463 1460 1457 1453 1448 1444 1440 1436 1432
1433 1437 1446 1455 1451 1448 1453 1450 1454 1455 1454 1457 1461 1458 1457 1459 1459 1460 1460 1461 1461 1462 1464 1466 1468 1470 1472 1473 1474 1473 1472 1470 1468 1465 1462 1459 1456 1453 1449 1445 1441 1436 1431 1427
1431 1438 1448 1456 1454 1460 1445 1441 1444 1449 1451 1450 1451 1454 1455 1457 1459 1460 1461 1461 1462 1462 1462 1464 1466 1468 1470 1471 1471 1470 1469 1467 1465 1462 1459 1456 1452 1449 1445 1442 1437 1433 1427 1421
1429 1436 1447 1455 1454 1449 1443 1442 1443 1447 1452 1450 1452 1454 1456 1457 1459 1460 1461 1461 1461 1460 1461 1463 1465 1467 1468 1468 1468 1467 1465 1463 1461 1459 1456 1452 1449 1445 1442 1438 1434 1428 1422 1415
1433 1435 1445 1452 1452 1453 1438 1436 1436 1442 1454 1451 1451 1453 1455 1457 1463 1463 1461 1460 1459 1459 1459 1461 1464 1465 1466 1465 1464 1463 1461 1460 1458 1455 1452 1449 1446 1442 1439 1434 1429 1422 1416 1410
1437 1441 1446 1448 1449 1443 1436 1435 1437 1449 1446 1448 1449 1451 1454 1456 1460 1460 1458 1457 1457 1458 1459 1461 1462 1463 1463 1462 1461 1460 1458 1456 1454 1452 1449 1446 1443 1439 1435 1429 1423 1417 1410 1404
1435 1442 1446 1448 1449 1445 1435 1436 1440 1441 1443 1446 1449 1452 1454 1455 1456 1456 1455 1455 1456 1457 1458 1459 1459 1460 1460 1459 1458 1456 1455 1453 1451 1448 1446 1442 1439 1435 1429 1423 1417 1411 1406 1399
1434 1433 1437 1438 1439 1435 1433 1434 1436 1439 1442 1446 1449 1451 1452 1453 1453 1454 1454 1454 1454 1455 1456 1457 1457 1457 1457 1456 1454 1453 1452 1449 1447 1444 1442 1438 1434 1429 1423 1417 1411 1406 1401 1394
1430 1431 1434 1436 1436 1435 1435 1436 1438 1441 1443 1446 1447 1449 1449 1450 1451 1451 1451 1452 1452 1453 1454 1454 1454 1454 1453 1452 1451 1450 1448 1445 1443 1440 1437 1433 1427 1422 1417 1412 1407 1401 1395 1389
1425 1429 1431 1433 1434 1435 1435 1436 1438 1440 1442 1444 1446 1447 1447 1448 1448 1449 1449 1449 1450 1450 1451 1451 1451 1450 1450 1449 1448 1446 1444 1442 1439 1436 1431 1426 1421 1416 1411 1406 1402 1396 1391 1386
1423 1425 1428 1428 1427 1430 1432 1435 1437 1439 1441 1443 1445 1445 1445 1445 1445 1445 1446 1446 1446 1447 1447 1447 1447 1447 1447 1446 1445 1443 1441 1438 1434 1429 1424 1420 1415 1410 1405 1399 1393 1389 1386 1380